Regional Weather Roundup
Issued by NWS

Home | Current Version | Previous Version | Text Only | Print | Product List | Glossary Off
Versions: 1 2 3 4 5 6 7 8 9 10 11 12 13 14 15 16 17 18 19 20 21 22 23 24 25 26 27 28 29 30 31 32 33 34 35 36 37 38 39 40 41 42 43 44 45 46 47 48 49 50

000
ASUS43 KOAX 201002
RWRNE

WEATHER ROUNDUP FOR NEBRASKA
NATIONAL WEATHER SERVICE OMAHA NE
500 AM CDT SUN APR 20 2014

NOTES: SATELLITE DATA IS BEING USED TO AUGMENT CLOUD COVER ABOVE
       12000 FEET.
       "FAIR" INDICATES FEW OR NO CLOUDS BELOW 12,000 FEET WITH NO
       SIGNIFICANT WEATHER AND/OR OBSTRUCTIONS TO VISIBILITY.

  * THESE STATIONS DO NOT REPORT WEATHER SUCH AS RAIN...SNOW OR FOG.

NEZ001>004-019>022-054>056-201100-
NEBRASKA PANHANDLE

CITY           SKY/WX    TMP DP  RH WIND       PRES   REMARKS
SCOTTSBLUFF    PTCLDY    43  34  70 E9        30.00R
ALLIANCE       CLEAR     40  35  83 S10       30.00S WCI  33
CHADRON        CLOUDY    47  38  71 CALM      29.93S
KIMBALL        PTCLDY    44  39  85 SW7       30.01F
SIDNEY         PTCLDY    43  35  73 W5        30.01F
$$

NEZ057>060-069>072-079>082-201100-
SOUTHWEST NEBRASKA

CITY           SKY/WX    TMP DP  RH WIND       PRES   REMARKS
NORTH PLATTE   PTCLDY    39  36  89 CALM      30.01R
IMPERIAL       PTCLDY    41  37  86 N5        30.01S
LEXINGTON      PTCLDY    46  43  89 NW8       29.99R
MCCOOK         CLOUDY    52  50  93 N8        29.97F FOG
OGALLALA       PTCLDY    38  34  84 W6        30.00F WCI  33
$$

NEZ005>010-023>029-035>040-094-201100-
NORTH CENTRAL NEBRASKA

CITY           SKY/WX    TMP DP  RH WIND       PRES   REMARKS
VALENTINE      CLEAR     36  25  64 CALM      30.01F
AINSWORTH      CLEAR     41  30  63 CALM      30.01S
BROKEN BOW     CLEAR     45  37  73 N6        29.98R
O`NEILL        CLEAR     48  29  47 N7        30.00R
ORD            PTCLDY    50  35  56 N6        29.96S
THEDFORD       CLEAR     41  36  81 CALM      30.01F
$$

NEZ041-046>049-061>064-073>077-083>087-201100-
SOUTH CENTRAL NEBRASKA

CITY           SKY/WX    TMP DP  RH WIND       PRES   REMARKS
GRAND ISLAND   CLOUDY    58  50  75 SW5       29.94S
AURORA         CLOUDY    60  51  72 S8        29.94F
HASTINGS       CLOUDY    58  48  69 S6        29.94F
HEBRON         CLOUDY    60  49  67 S13       29.97F
HOLDREGE       MOCLDY    53  49  87 CALM      29.96S
KEARNEY *      MOCLDY    54  46  76 NW8       29.95F
YORK           CLOUDY    57  50  77 S7        29.95F
$$

NEZ011>018-030>034-042>045-201100-
NORTHEAST NEBRASKA

CITY           SKY/WX    TMP DP  RH WIND       PRES   REMARKS
NORFOLK        MOCLDY    53  45  74 CALM      29.94F
ALBION         PTCLDY    48  40  75 N3        29.95S
BLAIR          CLOUDY    63  46  53 S16       29.97S
COLUMBUS *     MOCLDY    57  45  62 SE5       29.96S
FREMONT        MOCLDY    62  46  55 S8        29.97S
TEKAMAH        MOCLDY    59  44  57 S10       29.96F
$$

NEZ050>053-065>068-078-088>093-201100-
SOUTHEAST NEBRASKA

CITY           SKY/WX    TMP DP  RH WIND       PRES   REMARKS
LINCOLN        MOCLDY    64  47  53 S16       29.96F
OMAHA EPPLEY   MOCLDY    64  45  49 S10       29.98S
BEATRICE       MOCLDY    62  47  58 S13G18    29.99F
FALLS CITY     PTCLDY    60  46  59 S8        30.03F
NEBRASKA CITY  PTCLDY    62  46  56 S14       30.01S
PLATTSMOUTH    MOCLDY    64  45  48 S20G25    29.98F
$$

NEZ044-045-051>053-067-201100-
OMAHA AREA

CITY           SKY/WX    TMP DP  RH WIND       PRES   REMARKS
OMAHA EPPLEY   MOCLDY    64  45  49 S10       29.98S
BLAIR          CLOUDY    63  46  53 S16       29.97S
FREMONT        MOCLDY    62  46  55 S8        29.97S
MILLARD        MOCLDY    64  46  52 SE8       29.98S
OFFUTT AFB     MOCLDY    60  47  61 SE7       29.98F
PLATTSMOUTH    MOCLDY    64  45  48 S20G25    29.98F
WAHOO          FAIR      62  46  55 S10       29.96F
$$



USA.gov is the U.S. government's official web portal to all federal, state and local government web resources and services.